Galena, Nevada Weather observations

Data are for 60 minute period ending nearest time listed.
 Day   Time    Ave.   Ave.  Ave.  Vector   Max.   Total    Solar   
  of    of     Air    Rel.  Wind   Wind    Wind  Precip.   Rad.    
Year   Day     Temp.  Hum.  Speed  Dir.    Gust                    
2026   (PST)    F      %     mph   deg.    mph     in.     W/m2    
------------------------------------------------------------------- 
 244    7:00   63.0    28    4.0   204     11.0    2.02     129  
 244    8:00   66.0    27    8.0   185     19.0    2.02     321  
 244    9:00   68.0    25   10.0   183     21.0    2.02     515  
 244   10:00   69.0    23   11.0   218     24.0    2.02     673  
 244   11:00   72.0    17   10.0   216     24.0    2.02     803  
 244   12:00   72.0    17   11.0   199     25.0    2.02     805  
 244   13:00   73.0    19   12.0   225     28.0    2.02     733  
 244   14:00   70.0    15   14.0   233     31.0    2.02     695  
 244   15:00   68.0    19   14.0   247     33.0    2.02     568  
 244   16:00   69.0    18   15.0   230     31.0    2.02     556  
 244   17:00   66.0    22   11.0   226     27.0    2.02     399  
 244   18:00   61.0    26   12.0   207     29.0    2.02     105  
 244   19:00   58.0    25   10.0   209     27.0    2.02      10  
 244   20:00   57.0    27    9.0   177     24.0    2.02       0  
 244   21:00   55.0    33   10.0   137     27.0    2.02       0  
 244   22:00   54.0    35    9.0   164     17.0    2.02       0  
 244   23:00   52.0    38    7.0   154     18.0    2.02       0  
 245    0:00   52.0    31   13.0   218     28.0    2.02       0  
 245    1:00   51.0    36    6.0   223     21.0    2.02       0  
 245    2:00   49.0    40    6.0    28     22.0    2.02       0  
 245    3:00   50.0    45    5.0    47     14.0    2.02       0  
 245    4:00   50.0    47   14.0   158     21.0    2.02       0  
 245    5:00   50.0    47   11.0   155     24.0    2.02       0  
 245    6:00   51.0    46   10.0   172     21.0    2.02       5  

Return to Galena, Nevada graphs page.


Western Regional Climate Center,wrcc@dri.edu